Date,TemperatureHighF,TemperatureAvgF,TemperatureLowF,DewpointHighF,DewpointAvgF,DewpointLowF,HumidityHigh,HumidityAvg,HumidityLow,PressureMaxIn,PressureMinIn,WindSpeedMaxMPH,WindSpeedAvgMPH,GustSpeedMaxMPH,PrecipitationSumIn
2013-2-1,14.5,9.5,4.4,6.7,3.0,-1.7,84,75,66,30.50,30.13,9,4,15,0.00
2013-2-2,28.1,21.7,11.0,24.5,18.2,6.1,91,86,78,30.42,30.08,8,3,10,0.05
2013-2-3,25.9,18.6,14.1,22.8,14.3,8.8,91,83,75,30.20,30.02,7,4,10,0.00
2013-2-4,35.0,27.0,14.7,32.3,23.6,12.6,95,87,67,30.19,29.89,7,3,9,0.08
2013-2-5,36.0,30.8,22.1,31.9,27.4,19.9,95,87,81,30.08,29.91,6,2,9,0.02
2013-2-6,35.1,31.3,26.4,31.5,26.8,23.3,89,83,76,30.32,30.08,5,2,7,0.00
2013-2-7,55.8,39.7,28.0,39.9,32.2,25.2,90,76,51,30.27,29.85,6,3,7,0.00
2013-2-8,46.1,33.8,28.0,43.4,29.7,23.1,92,85,78,30.39,29.85,9,5,15,0.10
2013-2-9,39.2,30.4,21.6,24.5,21.7,18.1,87,71,47,30.49,30.27,8,4,9,0.00
2013-2-10,53.0,41.2,29.0,46.2,32.9,22.2,94,73,52,30.27,29.83,13,5,14,0.03
2013-2-11,50.8,44.0,35.9,48.6,35.2,28.3,94,72,55,30.08,29.78,14,8,27,0.01
2013-2-12,47.7,36.3,26.0,30.2,26.6,23.3,91,69,41,30.19,29.97,6,2,10,0.00
2013-2-13,39.3,31.7,27.7,29.3,27.3,25.4,92,84,63,29.97,29.84,5,2,7,0.02
2013-2-14,50.4,38.4,31.3,38.6,33.0,29.0,93,82,60,30.04,29.87,10,4,18,0.00
2013-2-15,36.7,31.0,23.0,32.2,26.4,18.9,91,83,73,30.22,30.03,9,2,16,0.01
2013-2-16,26.2,21.6,17.5,19.0,15.0,9.2,92,76,57,30.21,30.12,8,3,13,0.00
2013-2-17,29.9,20.8,11.0,14.9,10.5,5.8,91,67,36,30.33,30.19,6,2,9,0.01
2013-2-18,57.9,39.9,23.5,40.9,26.5,9.1,89,59,44,30.28,29.75,11,6,16,0.15
2013-2-19,44.6,30.1,22.2,41.7,24.3,13.9,92,79,66,30.18,29.68,13,9,21,0.12
2013-2-20,25.7,20.9,15.9,16.3,12.8,9.4,81,71,60,30.39,30.18,10,5,12,0.00
2013-2-21,30.0,24.1,19.1,25.7,18.7,13.1,91,80,70,30.43,30.12,17,5,18,0.00
2013-2-22,38.6,32.8,28.0,35.4,30.7,25.7,95,92,88,30.14,29.95,11,2,11,0.04
2013-2-23,38.8,32.5,27.3,31.0,26.0,22.5,95,78,59,30.06,29.97,6,2,9,0.01
2013-2-24,39.8,30.5,23.6,27.2,23.6,20.0,89,76,58,30.21,30.00,6,2,8,0.00
2013-2-25,43.8,33.9,24.4,28.5,25.0,20.6,87,71,52,30.23,29.95,12,4,14,0.00
2013-2-26,44.0,38.7,32.9,42.7,34.9,25.7,95,87,68,29.95,29.42,11,6,17,0.86
2013-2-27,41.4,35.1,31.2,39.0,32.5,29.0,94,90,85,29.76,29.55,10,6,15,0.03
2013-2-28,35.2,32.8,30.7,32.3,30.5,28.2,94,91,88,30.01,29.74,8,4,12,0.06